OneWeb SL0025

operational
NORAD ID: 45138 Int'l Des: 2020-008 Owner: ONEWEB Country: UK Constellation: oneweb
LEOCIRCULARPOLARONEWEB_TYPE

Über OneWeb SL0025

Beschreibung wird geladen...

Live-Position

3D-Globus wird geladen...

Nächste Überflüge

Höhenverlauf

Altitude vs Time

uPlot chart will show altitude changes over time

Zweizeiliger Elementsatz

1 45138U 20008H 25350.33845729 -.00000664 00000-0 -19391-2 0 9990
2 45138 87.8812 72.6971 0002014 108.9803 251.1543 13.10371926284621
Epoch: 16. Dez. 2025 • Age: 18 hours

Aktueller Status

Höhe 1225.5 km
Geschwindigkeit 7.24 km/s
Subsatellitenpunkt 32.27°N, 51.29°W
Startdatum 6. Feb. 2020
Alter 5.8 years
Typ internet

Technische Details

Klassifizierung Payload
Masse 148.00 kg
Trockenmasse 140.00 kg
Gesamtmasse 148.00 kg
Länge 1.30 m
Durchmesser 1.00 m
Spannweite 5.00 m
Form Trapezoid+2 pan
Hersteller ONEWUS
Bus-Typ ARROW
Phasenstatus In Orbit
Besitzer/Staat ONEWEB/UK

Große Konstellationen

Loading constellations...